| time (UTC) | temp F | wind direction | speed MPH | gust MPH | rain 1hr in | rain 24hr in | rain mn in | humidity % | barometer mb |
| 20260901210045 | 83 | 179 | 0.0 | 0.0 | 0.00 | 0.08 | 0.08 | 15 | 1012.8 |
| 20260901204540 | 84 | 180 | 0.0 | 0.0 | 0.00 | 0.09 | 0.08 | 14 | 1012.9 |
| 20260901203036 | 84 | 181 | 0.0 | 0.0 | 0.00 | 0.09 | 0.08 | 5 | 1012.7 |
| 20260901201531 | 84 | 195 | 0.0 | 0.0 | 0.00 | 0.09 | 0.08 | 17 | 1013.0 |
| 20260901200040 | 85 | 184 | 0.0 | 0.0 | 0.00 | 0.09 | 0.08 | 27 | 1013.2 |
| 20260901194521 | 86 | 188 | 0.0 | 0.0 | 0.00 | 0.09 | 0.08 | 38 | 1013.3 |
| 20260901193017 | 87 | 181 | 0.0 | 0.0 | 0.00 | 0.09 | 0.08 | 42 | 1013.3 |
| 20260901191520 | 88 | 183 | 0.0 | 0.0 | 0.00 | 0.09 | 0.08 | 50 | 1013.3 |
| 20260901190009 | 88 | 172 | 0.0 | 0.0 | 0.00 | 0.09 | 0.08 | 50 | 1013.6 |
| 20260901184504 | 89 | 177 | 0.0 | 1.0 | 0.00 | 0.09 | 0.08 | 53 | 1014.0 |
| 20260901183100 | 88 | 180 | 0.0 | 1.0 | 0.00 | 0.09 | 0.08 | 41 | 1014.1 |
| 20260901181555 | 87 | 200 | 0.0 | 1.0 | 0.00 | 0.09 | 0.08 | 37 | 1014.3 |
| 20260901180050 | 87 | 197 | 0.0 | 1.0 | 0.00 | 0.09 | 0.08 | 43 | 1014.6 |
| 20260901174557 | 87 | 177 | 0.0 | 2.0 | 0.00 | 0.09 | 0.08 | 32 | 1014.6 |
| 20260901173042 | 88 | 205 | 0.0 | 1.0 | 0.00 | 0.09 | 0.08 | 45 | 1014.4 |
| 20260901171539 | 87 | 212 | 0.0 | 2.0 | 0.00 | 0.09 | 0.08 | 20 | 1014.5 |
| 20260901170101 | 85 | 213 | 0.0 | 0.0 | 0.00 | 0.09 | 0.08 | 9 | 1014.7 |
| 20260901164527 | 84 | 186 | 0.0 | 0.0 | 0.00 | 0.15 | 0.08 | 1 | 1015.0 |
| 20260901163023 | 83 | 186 | 0.0 | 0.0 | 0.00 | 0.15 | 0.08 | 1 | 1014.9 |
| 20260901161519 | 82 | 181 | 0.0 | 0.0 | 0.08 | 0.15 | 0.08 | 1 | 1015.1 |
| 20260901160024 | 81 | 167 | 0.0 | 0.0 | 0.08 | 0.15 | 0.08 | 1 | 1015.1 |
| 20260901154510 | 80 | 186 | 0.0 | 0.0 | 0.08 | 0.69 | 0.08 | 1 | 1015.2 |
| 20260901153007 | 82 | 186 | 0.0 | 1.0 | 0.08 | 0.69 | 0.08 | 13 | 1015.3 |
| 20260901151600 | 86 | 181 | 0.0 | 3.0 | 0.00 | 0.61 | 0.00 | 38 | 1015.3 |
| 20260901150056 | 86 | 182 | 0.0 | 0.0 | 0.00 | 0.61 | 0.00 | 41 | 1015.2 |
| 20260901144553 | 87 | 171 | 0.0 | 0.0 | 0.00 | 0.61 | 0.00 | 46 | 1015.1 |
| 20260901143050 | 86 | 177 | 0.0 | 0.0 | 0.00 | 0.61 | 0.00 | 35 | 1014.9 |
| 20260901141545 | 86 | 177 | 0.0 | 0.0 | 0.00 | 0.61 | 0.00 | 31 | 1014.7 |
| 20260901140038 | 85 | 186 | 0.0 | 0.0 | 0.00 | 0.61 | 0.00 | 17 | 1014.7 |
| 20260901134533 | 85 | 172 | 0.0 | 0.0 | 0.00 | 0.61 | 0.00 | 15 | 1014.8 |
| 20260901133033 | 84 | 191 | 0.0 | 0.0 | 0.00 | 0.61 | 0.00 | 8 | 1014.5 |
| 20260901131534 | 83 | 174 | 0.0 | 0.0 | 0.00 | 0.61 | 0.00 | 1 | 1014.4 |
| 20260901130020 | 82 | 169 | 0.0 | 0.0 | 0.00 | 0.61 | 0.00 | 1 | 1014.5 |
| 20260901124516 | 80 | 171 | 0.0 | 0.0 | 0.00 | 0.61 | 0.00 | 1 | 1014.6 |
| 20260901123011 | 79 | 170 | 0.0 | 0.0 | 0.00 | 0.61 | 0.00 | 1 | 1014.6 |
| 20260901121508 | 77 | 169 | 0.0 | 0.0 | 0.00 | 0.61 | 0.00 | 1 | 1014.5 |
| 20260901120002 | 77 | 169 | 0.0 | 0.0 | 0.00 | 0.61 | 0.00 | 1 | 1014.3 |
| 20260901114600 | 0 | 0.0 | 0.0 | 0.00 | 0.61 | 0.00 | 1014.0 | ||
| 20260901113107 | 0 | 0.0 | 0.0 | 0.00 | 0.61 | 0.00 | 1013.8 | ||
| 20260901111609 | 0 | 0.0 | 0.0 | 0.00 | 0.61 | 0.00 | 1013.6 | ||
| 20260901110106 | 0 | 0.0 | 0.0 | 0.00 | 0.61 | 0.00 | 1013.6 | ||
| 20260901104603 | 0 | 0.0 | 0.0 | 0.00 | 0.61 | 0.00 | 1013.6 | ||
| 20260901103057 | 0 | 0.0 | 0.0 | 0.00 | 0.61 | 0.00 | 1013.4 | ||
| 20260901101606 | 0 | 0.0 | 0.0 | 0.00 | 0.61 | 0.00 | 1013.3 | ||
| 20260901100108 | 0 | 0.0 | 0.0 | 0.00 | 0.61 | 0.00 | 1013.3 | ||
| 20260901094601 | 0 | 0.0 | 0.0 | 0.00 | 0.61 | 0.00 | 1013.3 | ||
| 20260901093049 | 0 | 0.0 | 0.0 | 0.00 | 0.61 | 0.00 | 1013.2 | ||
| 20260901091545 | 0 | 0.0 | 0.0 | 0.00 | 0.61 | 0.00 | 1013.1 | ||
| 20260901090044 | 0 | 0.0 | 0.0 | 0.00 | 0.61 | 0.00 | 1013.2 | ||
| 20260901084555 | 0 | 0.0 | 0.0 | 0.00 | 0.61 | 0.00 | 1013.2 | ||
| 20260901083040 | 0 | 0.0 | 0.0 | 0.00 | 0.61 | 0.00 | 1013.3 | ||
| 20260901081527 | 0 | 0.0 | 0.0 | 0.00 | 0.61 | 0.00 | 1013.3 | ||
| 20260901080023 | 0 | 0.0 | 0.0 | 0.00 | 0.61 | 0.00 | 1013.5 | ||
| 20260901074528 | 0 | 0.0 | 0.0 | 0.00 | 0.61 | 0.00 | 1013.4 | ||
| 20260901073028 | 0 | 0.0 | 0.0 | 0.00 | 0.61 | 0.00 | 1013.6 | ||
| 20260901071510 | 0 | 0.0 | 0.0 | 0.00 | 0.61 | 0.00 | 1013.7 | ||
| 20260901070009 | 0 | 0.0 | 0.0 | 0.00 | 0.61 | 0.00 | 1013.8 | ||
| 20260901064501 | 0 | 0.0 | 0.0 | 0.00 | 0.61 | 0.00 | 1013.8 | ||
| 20260901063059 | 0 | 0.0 | 0.0 | 0.00 | 0.61 | 0.00 | 1013.6 | ||
| 20260901061555 | 0 | 0.0 | 0.0 | 0.00 | 0.61 | 0.00 | 1013.7 | ||
| 20260901060049 | 0 | 0.0 | 0.0 | 0.00 | 0.61 | 0.00 | 1014.0 | ||
| 20260901054543 | 0 | 0.0 | 0.0 | 0.00 | 0.61 | 0.00 | 1014.2 | ||
| 20260901053054 | 0 | 0.0 | 0.0 | 0.00 | 0.61 | 0.00 | 1014.5 | ||
| 20260901051539 | 0 | 0.0 | 0.0 | 0.00 | 0.61 | 0.00 | 1014.5 | ||
| 20260901050031 | 0 | 0.0 | 0.0 | 0.00 | 0.61 | 0.00 | 1014.8 | ||
| 20260901044532 | 0 | 0.0 | 0.0 | 0.00 | 0.61 | 0.00 | 1014.8 | ||
| 20260901043024 | 0 | 0.0 | 0.0 | 0.00 | 0.61 | 0.00 | 1014.9 | ||
| 20260901041523 | 76 | 176 | 0.0 | 0.0 | 0.00 | 0.61 | 0.00 | 1 | 1015.1 |
| 20260901040013 | 77 | 178 | 0.0 | 0.0 | 0.00 | 0.61 | 0.00 | 1 | 1015.1 |
| 20260901034520 | 77 | 179 | 0.0 | 0.0 | 0.00 | 0.61 | 0.61 | 1 | 1015.1 |
| 20260901033011 | 77 | 179 | 0.0 | 0.0 | 0.00 | 0.61 | 0.61 | 1 | 1015.1 |
| 20260901031518 | 77 | 179 | 0.0 | 0.0 | 0.00 | 0.61 | 0.61 | 1 | 1015.1 |
| 20260901030017 | 77 | 179 | 0.0 | 0.0 | 0.00 | 0.61 | 0.61 | 1 | 1015.2 |
| 20260901024514 | 77 | 179 | 0.0 | 0.0 | 0.00 | 0.61 | 0.61 | 1 | 1015.3 |
| 20260901023001 | 77 | 179 | 0.0 | 0.0 | 0.00 | 0.61 | 0.61 | 1 | 1015.3 |
| 20260901021557 | 78 | 179 | 0.0 | 0.0 | 0.00 | 0.61 | 0.61 | 1 | 1015.3 |
| 20260901020053 | 78 | 179 | 0.0 | 0.0 | 0.00 | 0.61 | 0.61 | 1 | 1015.0 |
| 20260901014549 | 78 | 179 | 0.0 | 0.0 | 0.00 | 0.61 | 0.61 | 1 | 1014.8 |
| 20260901013049 | 78 | 179 | 0.0 | 0.0 | 0.00 | 0.61 | 0.61 | 1 | 1014.7 |
| 20260901011539 | 79 | 179 | 0.0 | 0.0 | 0.00 | 0.61 | 0.61 | 1 | 1014.5 |
| 20260901010038 | 79 | 179 | 0.0 | 0.0 | 0.00 | 0.61 | 0.61 | 1 | 1014.5 |
| 20260901004530 | 79 | 179 | 0.0 | 0.0 | 0.00 | 0.61 | 0.61 | 1 | 1014.4 |
| 20260901003028 | 80 | 179 | 0.0 | 0.0 | 0.00 | 0.61 | 0.61 | 1 | 1014.4 |
| 20260901001527 | 80 | 179 | 0.0 | 0.0 | 0.00 | 0.61 | 0.61 | 1 | 1014.3 |
| 20260901000022 | 80 | 179 | 0.0 | 0.0 | 0.00 | 0.61 | 0.61 | 1 | 1014.3 |
| 20260831234518 | 81 | 179 | 0.0 | 0.0 | 0.00 | 0.61 | 0.61 | 1 | 1014.3 |
| 20260831233015 | 82 | 175 | 0.0 | 0.0 | 0.00 | 0.61 | 0.61 | 1 | 1014.1 |
| 20260831231509 | 82 | 176 | 0.0 | 0.0 | 0.00 | 0.61 | 0.61 | 1 | 1014.2 |
| 20260831230004 | 83 | 176 | 0.0 | 0.0 | 0.00 | 0.61 | 0.61 | 1 | 1014.1 |
| 20260831224611 | 83 | 180 | 0.0 | 0.0 | 0.00 | 0.61 | 0.61 | 1 | 1014.1 |
| 20260831223056 | 83 | 179 | 0.0 | 0.0 | 0.00 | 0.61 | 0.61 | 1 | 1014.0 |
| 20260831221613 | 83 | 181 | 0.0 | 0.0 | 0.00 | 0.61 | 0.61 | 1 | 1014.0 |
| 20260831220047 | 82 | 170 | 0.0 | 0.0 | 0.00 | 0.61 | 0.61 | 1 | 1013.9 |
| 20260831214546 | 82 | 180 | 0.0 | 0.0 | 0.00 | 0.61 | 0.61 | 1 | 1014.1 |
| 20260831213038 | 82 | 180 | 0.0 | 0.0 | 0.00 | 0.61 | 0.61 | 1 | 1014.0 |
| 20260831211537 | 82 | 180 | 0.0 | 0.0 | 0.01 | 0.61 | 0.61 | 1 | 1014.0 |